Location: Alafon
(8.4500°N, 4.2333°E)
Time: 01:54:44
(UTC+00:00)

GPS 2-17 Rocket1 - Pass Details

Date: 05 July 2020
Orbit: 571 x 659 km, 20.3° (Epoch: 06 August)

Event Time Altitude Azimuth Distance (km) Brightness Sun altitude
Rises 18:40:54 0° 279° (W) 2,825 8.2 -8.8°
Reaches altitude 10° 18:43:17 10° 273° (W) 1,939 6.9 -9.3°
Maximum altitude 18:47:36 43° 201° (SSW) 868 3.8 -10.3°
Enters shadow 18:51:20 14° 133° (SE) 1,749 4.8 -11.1°
